Location: Riguepeu
(43.6486°N, 0.3435°E)
Time: 20:21:45
(UTC+00:00)

Daily predictions for brighter satellites

Satellite Brightness Start Highest point End
(mag) Time Altitude Azimuth Time Altitude Azimuth Time Altitude Azimuth
Cosmos 1814 Rocket 4.1 19:33:11 10° NNW 19:38:27 89° WSW 19:43:36 10° SSE
Meteor 2-15 4.5 19:34:20 10° S 19:40:23 86° E 19:46:29 10° N
SL-4 R/B 2.4 19:36:11 10° NW 19:40:31 67° NNE 19:45:07 10° ESE
X-37B 0.9 19:40:15 10° W 19:43:26 69° N 19:46:38 10° E
IRS-1A Rocket 4.5 19:44:56 10° SSE 19:50:36 65° ENE 19:56:24 10° N
Cosmos 1745 Rocket 4.5 19:46:30 10° N 19:52:20 41° ENE 19:58:06 10° SE
SPOT 3 Rocket 4.4 19:49:25 10° SE 19:54:01 34° ENE 19:58:38 10° N
CZ-4 R/B 4.4 19:52:51 10° WSW 19:54:59 14° W 19:57:07 10° WNW
ERS-2 3.0 19:51:57 10° N 19:55:29 53° WNW 19:59:01 10° SSW
Cosmos 1844 4.1 19:50:26 10° S 19:55:49 43° ESE 20:01:10 10° NE
Resurs 1-3 3.8 19:51:47 10° SSE 19:56:04 57° ENE 20:00:22 10° N
Cosmos 968 Rocket 3.5 19:51:30 10° S 19:56:40 61° ESE 20:01:49 10° NNE
Cosmos 1743 Rocket 3.5 19:53:10 10° N 19:57:31 72° E 20:01:51 10° SSE
BREEZE-M DEB (TANK) 3.9 19:53:28 10° WNW 19:57:47 78° N 20:05:03 10° E
ATLAS 5 CENTAUR R/B 3.3 19:54:57 10° NNW 19:59:57 34° NE 20:05:41 10° ESE
BREEZE M DEB (TANK) 4.1 19:59:43 10° WSW 20:03:09 70° NNW 20:13:47 10° ENE
Cosmos 1486 Rocket 4.1 19:59:00 10° S 20:04:11 57° ESE 20:09:26 10° NNE
Intercosmos 25 Rocket 4.1 20:00:16 10° N 20:06:53 67° ENE 20:10:57 10° SSE
IGS 5A 4.2 20:04:31 12° SE 20:07:57 37° ENE 20:11:46 10° N
Cosmos 1500 Rocket 3.6 20:05:05 10° N 20:09:30 82° W 20:13:51 10° S
Cosmos 2221 3.6 20:05:50 10° SSW 20:09:58 47° WNW 20:14:11 10° N
S3M 4.2 20:04:27 10° SSE 20:10:40 57° E 20:16:52 10° NNE
BREEZE-M R/B 1.6 20:08:42 10° SW 20:11:33 74° SSE 20:13:58 10° ENE
USA 186 3.8 20:10:25 10° SSW 20:12:26 20° W 20:14:23 10° NW
FALCON 9 DEB 3.4 20:15:14 10° WNW 20:18:09 46° SW 20:20:03 19° SSE
Cosmos 1933 3.6 20:17:16 10° SSE 20:21:09 46° E 20:25:02 10° NNE
USA 245 4.2 20:23:48 13° ENE 20:23:49 13° ENE 20:25:03 10° NE
FALCON 9 DEB 3.8 20:21:33 10° WNW 20:24:23 37° SW 20:26:04 19° SSE
Cosmos 1242 Rocket 2.9 20:24:04 15° SSE 20:26:41 42° E 20:30:04 10° NNE
OBJECT-B 2.9 20:24:17 10° SSW 20:27:01 25° W 20:29:48 10° NW
Cosmos 1553 Rocket 4.2 20:23:13 10° SSW 20:29:19 73° W 20:35:33 10° N
Cosmos 1437 Rocket 3.0 20:26:47 10° SSW 20:30:36 70° WNW 20:34:32 10° N
BREEZE M DEB (TANK) 3.9 20:25:35 10° WNW 20:31:24 35° N 20:33:52 10° ENE
FALCON 9 DEB 3.6 20:30:21 10° WNW 20:33:14 40° SW 20:34:36 24° SSE
Resurs 01 Rocket 1.6 20:29:42 15° SSE 20:33:24 83° ENE 20:37:52 10° NNW
Spot 2 Rocket 4.2 20:34:12 20° ESE 20:37:07 37° ENE 20:41:44 10° N
SJ 16-02 3.6 20:38:19 10° E 20:38:19 10° E 20:38:32 10° ENE
DELTA 2 R/B (1) 3.9 20:33:07 10° W 20:38:31 51° S 20:41:51 22° SE
Sich 1 3.0 20:35:28 10° N 20:39:49 86° E 20:43:01 18° S
Cosmos 2082 Rocket 4.2 20:39:30 10° N 20:42:47 15° NE 20:46:02 10° E
Meteor 1-20 Rocket 4.1 20:37:16 10° N 20:42:55 82° E 20:47:11 18° SSE
BREEZE-M DEB (TANK) 4.0 20:42:50 10° W 20:44:39 18° SSW 20:45:33 16° S
Cosmos 1782 3.1 20:43:16 25° SSE 20:45:13 47° E 20:49:04 10° NNE
CZ-4C R/B 3.7 20:38:38 10° NNW 20:45:16 41° NE 20:51:18 16° ESE
Cosmos 1500 4.3 20:43:10 10° NNE 20:46:23 26° ENE 20:47:10 24° E
ERS-1 Rocket 3.8 20:50:52 24° ESE 20:53:04 34° ENE 20:57:35 10° N
Cosmos 1503 Rocket 3.9 20:49:49 10° SSW 20:54:59 90° ESE 21:00:13 10° NNE
SPOT 5 3.8 20:52:52 24° ESE 20:55:03 35° ENE 20:59:47 10° N
Intercosmos 24 4.5 20:53:37 10° SSW 20:57:28 51° W 21:00:58 10° N
Cosmos 1151 Rocket 2.9 20:58:03 24° S 21:00:37 74° E 21:04:59 10° NNE
Cosmos 1777 Rocket 4.4 20:58:39 28° SSE 21:00:39 40° ESE 21:05:29 10° NE
USA 290 2.5 20:58:51 10° NNW 21:02:04 62° WSW 21:02:58 41° S
Terra 3.0 21:02:22 24° E 21:03:53 29° ENE 21:07:59 10° N
Cosmos 1602 3.6 21:00:59 10° N 21:04:51 88° W 21:06:20 37° S
Cosmos 2278 Rocket 2.8 21:05:44 30° SE 21:07:08 35° ESE 21:12:13 10° NE
CZ-2C R/B 4.0 21:08:59 10° N 21:13:25 65° WNW 21:17:35 12° SSW
Cosmos 1515 Rocket 3.8 21:17:35 44° SE 21:18:22 50° E 21:22:38 10° NNE
Cosmos 1844 Rocket 4.3 21:14:26 10° WSW 21:19:31 35° NW 21:24:39 10° N
SPOT 1/Viking Rocket 3.7 21:16:47 27° S 21:19:38 70° WSW 21:24:51 10° NNW
Cosmos 2084 3.2 21:17:53 30° SSW 21:19:49 67° SE 21:24:02 10° NE
SL-4 R/B 3.6 21:16:07 10° WNW 21:19:58 28° SW 21:21:08 25° SSW
X-37B 0.5 21:16:59 10° WNW 21:20:10 86° NNW 21:20:10 86° NNW
ARIANE 5 R/B 2.5 21:20:40 44° SSE 21:22:02 90° W 21:26:23 10° NNW
SWARM C 4.5 21:19:40 10° N 21:22:52 68° ENE 21:22:52 68° ENE
SWARM A 4.1 21:19:47 10° N 21:23:01 71° ENE 21:23:01 71° ENE
Cosmos 1437 3.0 21:25:46 55° N 21:25:46 55° N 21:28:08 10° N
JB-3 4.1 21:23:10 10° NNE 21:27:06 88° ESE 21:27:56 54° S
Cosmos 1633 Rocket 3.5 21:25:21 10° NNW 21:29:40 56° W 21:31:23 33° SSW
Cosmos 1812 2.5 21:31:31 71° SE 21:31:44 74° E 21:35:36 10° NNE
Cosmos 1470 Rocket 3.6 21:34:28 10° N 21:38:57 80° W 21:39:56 54° S
Cosmos 1328 Rocket 4.2 21:36:50 25° SW 21:39:10 53° WNW 21:43:31 10° N
Cosmos 2184 Rocket 4.1 21:33:12 10° N 21:39:23 60° E 21:41:19 42° SE
Meteor 1-5 Rocket 4.0 21:35:05 10° N 21:40:31 80° E 21:42:00 49° SSE
NOSS 3-4 (A) 4.5 21:36:25 10° NNW 21:43:05 47° NE 21:47:02 26° ESE
NOSS 3-4 (C) 4.5 21:36:32 10° NNW 21:43:11 47° NE 21:47:09 26° ESE
ATLAS 5 CENTAUR R/B 2.8 21:39:14 10° NW 21:44:51 55° WSW 21:47:13 37° S
CARTOSAT-1 4.0 21:44:08 43° SSW 21:45:09 55° W 21:49:24 10° NNW
Cosmos 2074 Rocket 4.0 21:41:04 10° N 21:47:23 72° E 21:49:23 45° SSE
NOSS 3-3 (A) 4.2 21:45:04 10° SW 21:50:45 66° NW 21:57:17 10° NNE
NOSS 3-3 (C) 4.2 21:45:09 10° SW 21:50:52 67° NW 21:57:23 10° NNE
Cosmos 1666 2.8 21:48:50 10° N 21:52:11 70° N 21:52:11 70° N
Nadezhda 1 Rocket 4.2 21:51:52 45° SE 21:53:16 53° E 21:59:21 10° NNE
Cosmos 1933 Rocket 3.4 21:49:09 10° N 21:53:31 85° W 21:53:49 77° SSW
Cosmos 1833 Rocket 2.6 21:48:42 10° NNW 21:54:23 84° ENE 21:55:42 55° SSE
ATLAS 2AS CENTAUR R/B 3.9 21:49:41 10° NNW 21:56:30 37° NE 22:00:31 21° E
Meteor 2-12 Rocket 4.5 21:51:40 10° N 21:57:40 62° ENE 21:59:02 49° SE
BREEZE-M DEB (TANK) 4.1 21:57:15 10° NW 21:57:58 18° NW 21:57:58 18° NW
Cosmos 1538 Rocket 3.9 21:57:40 10° NNW 22:03:04 89° WSW 22:03:56 64° SSE
Iridium 4 Rocket 3.8 22:01:47 44° SSW 22:03:41 75° W 22:09:36 10° N
USA 305 3.9 21:59:53 10° NW 22:03:57 41° NNE 22:04:41 37° NE
Cosmos 1610 Rocket 4.4 22:03:18 10° N 22:09:26 67° E 22:10:38 55° SE
Cosmos 158 Rocket 3.7 22:10:26 10° NNW 22:15:19 72° ENE 22:15:27 71° E
SJ 16-02 1.4 22:15:15 72° W 22:15:22 73° WNW 22:19:49 10° NNE
Cosmos 2228 Rocket 3.1 22:17:34 79° N 22:17:34 79° N 22:21:46 10° N
Meteor 1-27 Rocket 3.7 22:18:37 65° SSE 22:19:28 77° E 22:25:22 10° NNE
Cosmos 1680 Rocket 4.1 22:15:50 10° N 22:20:57 45° ENE 22:21:27 44° E
Cosmos 2341 Rocket 4.5 22:15:57 10° N 22:22:06 46° ENE 22:23:08 43° ESE
USA 306 3.5 22:18:58 10° NW 22:23:05 51° NNE 22:23:05 51° NNE
COSMOS 2406 3.4 22:19:30 10° NNW 22:25:02 56° WSW 22:25:47 52° SW
Cosmos 2082 Rocket 2.0 22:22:09 10° NNW 22:27:47 81° ENE 22:28:19 72° SE
ERS-1 Rocket 4.3 22:30:51 27° WSW 22:31:52 30° W 22:36:15 10° NW
Milstar 3 4.5 22:23:04 10° WSW 22:29:42 26° SSW 22:29:42 26° SSW
SPOT 5 4.3 22:32:05 27° WSW 22:33:08 30° W 22:37:40 10° NNW
CZ-4C R/B 3.2 22:26:58 10° NW 22:34:18 61° WSW 22:36:28 47° S
Cosmos 1271 Rocket 4.0 22:35:28 38° WNW 22:35:28 38° WNW 22:39:06 10° N
Terra 3.0 22:41:15 32° WSW 22:41:33 32° W 22:45:49 10° NNW
Meteor 1-11 Rocket 4.1 22:38:29 10° NNW 22:44:20 57° W 22:45:14 52° SW
Cosmos 1295 Rocket 4.5 22:38:22 10° N 22:44:43 77° W 22:45:45 63° SSW
USA 307 3.7 22:44:15 10° NW 22:47:31 49° NNW 22:47:31 49° NNW
Cosmos 1340 Rocket 3.8 22:46:44 10° N 22:49:40 46° N 22:49:40 46° N
Cosmos 2278 Rocket 3.5 22:47:29 18° WSW 22:51:09 37° WNW 22:56:25 10° N
Spot 4 4.0 22:53:27 67° NE 22:53:27 67° NE 22:57:53 10° N
Cosmos 923 Rocket 4.1 22:50:54 10° NNW 22:55:53 69° W 22:55:53 69° W
Cosmos 1898 Rocket 3.5 22:57:39 75° NE 22:57:39 75° NE 23:02:34 10° NNE
Cosmos 1536 4.3 22:56:43 10° NNW 22:59:30 33° WNW 22:59:30 33° WNW
USA 308 4.1 22:57:43 10° NW 23:00:30 39° NW 23:00:30 39° NW
Cosmos 2369 Rocket 3.6 23:03:27 26° ENE 23:03:27 26° ENE 23:06:49 10° NE
Meteor 2-9 Rocket 4.3 23:04:46 10° N 23:10:34 67° ENE 23:10:35 67° E
SL-8 Rocket 3.8 23:04:43 10° N 23:11:06 83° E 23:11:34 77° SE
Cosmos 1943 Rocket 2.4 23:11:54 59° ENE 23:11:54 59° ENE 23:16:46 10° NNE
Cosmos 1975 4.4 23:09:50 10° N 23:12:12 31° NNE 23:12:12 31° NNE
ALOS 2 3.4 23:16:05 48° NNE 23:16:05 48° NNE 23:19:24 10° N
DNEPR-1 R/B 4.4 23:19:56 60° ENE 23:19:56 60° ENE 23:24:10 10° NE
Meteor 2-4 Rocket 4.2 23:20:31 48° E 23:20:31 48° E 23:25:34 10° NNE
Cosmos 44 3.6 23:15:41 10° NNW 23:20:48 70° NNE 23:20:48 70° NNE
Meteor 1-18 Rocket 4.2 23:33:04 82° NNW 23:33:04 82° NNW 23:38:31 10° N
NOSS 3-4 (A) 4.3 23:27:20 10° NW 23:34:07 47° WSW 23:34:27 47° SW
NOSS 3-4 (C) 4.2 23:27:27 10° NW 23:34:14 47° WSW 23:34:34 47° SW
Cosmos 1238 Rocket 4.0 23:30:29 10° NNW 23:36:39 59° W 23:36:39 59° W
SL-24 R/B - RUBIN 2 4.4 23:33:05 10° NW 23:37:29 57° NW 23:37:29 57° NW
SeaSat 1 3.4 23:34:53 10° NE 23:38:19 39° ENE 23:38:19 39° ENE
Cosmos 864 Rocket 4.3 23:33:39 10° N 23:39:49 77° W 23:39:57 76° WSW
Cosmos 1959 Rocket 4.4 23:36:28 10° NNW 23:42:41 71° W 23:42:51 70° WSW
USA 215 3.4 23:42:20 43° ESE 23:44:34 71° NE 23:51:06 10° NW
Cosmos 2297 4.2 23:45:51 49° W 23:46:29 51° WNW 23:52:02 10° NNE
ATLAS 2AS CENTAUR R/B 2.7 23:40:43 10° NW 23:47:53 61° WSW 23:47:56 61° WSW
Cosmos 2181 Rocket 4.4 23:52:11 49° W 23:52:47 51° WNW 23:58:46 10° N
